Regional Weather Roundup
Issued by NWS

Home | Current Version | Previous Version | Text Only | Print | Product List | Glossary On
Versions: 1 2 3 4 5 6 7 8 9 10 11 12 13 14 15 16 17 18 19 20 21 22 23 24 25 26 27 28 29 30 31 32 33 34 35 36 37 38 39 40 41 42 43 44 45 46 47 48 49 50
333
ASUS44 KJAN 241410
RWRMS

MISSISSIPPI HOURLY WEATHER ROUNDUP
NATIONAL WEATHER SERVICE JACKSON MS
900 AM CDT FRI OCT 24 2014

NOTE: "FAIR: INDICATES FEW OR NO CLOUDS BELOW 12,000 FEET WITH NO
SIGNIFICANT WEATHER AND/OR OBSTRUCTIONS TO VISIBILITY.

MSZ001>002-007>008-010>013-018>021-025>028-034>036-241500-
NORTHWEST MISSISSIPPI

CITY           SKY/WX    TMP DP  RH WIND       PRES   REMARKS
CLARKSDALE     FAIR      50  50 100 CALM      30.19R
CLEVELAND      FAIR      53  51  94 N5        30.17R
GREENWOOD      SUNNY     51  48  89 CALM      30.16R
GREENVILLE     SUNNY     55  50  83 N5        30.17R
GRENADA          N/A    N/A N/A N/A MISG        N/A
OLIVE BRANCH   MOSUNNY   48  48 100 CALM      30.17R
OXFORD         FAIR      48  46  93 CALM      30.17S
TUNICA         SUNNY     50  50 100 CALM      30.18S
$$

MSZ003>006-009-014>017-022>024-029>033-037>039-241500-
NORTHEAST MISSISSIPPI

CITY           SKY/WX    TMP DP  RH WIND       PRES   REMARKS
COLUMBUS AFB   SUNNY     54  50  86 NW5       30.14R
CORINTH        FAIR      50  46  87 CALM      30.15S
GOLDN TRIANGLE SUNNY     55  46  71 N7        30.14R
STARKVILLE     FAIR      52  48  87 CALM      30.14S
TUPELO         SUNNY     54  48  80 NE7       30.15R
$$

MSZ040-058-241500-
CENTRAL MISSISSIPPI

CITY           SKY/WX    TMP DP  RH WIND       PRES   REMARKS
JACKSON INTL   MOSUNNY   54  50  86 N3        30.15R
JACKSON HAWKNS SUNNY     53  50  89 VRB3      30.16R
MERIDIAN KEY   MOSUNNY   52  49  89 N5        30.14R
MERIDIAN NAS   MOSUNNY   53  49  86 NW6       30.14R
RAYMOND        FAIR      48  45  87 MISG      30.16R
VICKSBURG      SUNNY     54  50  86 VRB3      30.17R
$$

MSZ059>079-241500-
SOUTH MISSISSIPPI

CITY           SKY/WX    TMP DP  RH WIND       PRES   REMARKS
BROOKHAVEN     FAIR      52  52 100 CALM      30.16R
COLUMBIA         N/A    N/A N/A N/A MISG        N/A
HATTIESBURG    SUNNY     55  50  83 NW6       30.14R
MCCOMB         SUNNY     56  49  77 N5        30.14R
NATCHEZ        PTSUNNY   50  48  93 CALM      30.16S
PINE BELT      SUNNY     57  48  72 N5        30.14R
$$

MSZ080>082-241500-
COASTAL MISSISSIPPI

CITY           SKY/WX    TMP DP  RH WIND       PRES   REMARKS
BAY ST LOUIS   SUNNY     57  48  72 CALM      30.12R
BILOXI         SUNNY     60  49  66 VRB5      30.11R
PASCAGOULA     SUNNY     58  51  78 N5        30.10R
GULFPORT       SUNNY     60  49  66 N6        30.11R
$$



USA.gov is the U.S. government's official web portal to all federal, state and local government web resources and services.